Weather in Daska

Pakistan     32°09′22″N   74°10′31″E
temp.,
°C
wind,
m/s
gust,
m/s
humid.,
%
clouds,
%
prec.,
mm/h
press.,
hPa
HPBL,
m
9 may, sun
sun923:00+29ese34326 0.2 100593
02:00+27e34368 0.2 100568
05:00+25ene364344 0.5 1005102
08:00+31e45276 0.1 1008573
11:00+37ese33206 0.3 10072149
14:00+39wsw35172 0.0 10033601
17:00+34nne982577 0.0 10021177
20:00+28ene61336100 0.1 1003474
10 may, mon
mon1023:00+28sse363986 0.1 1003240
02:00+25ne3448100 0.3 100387
05:00+24ene365123 0.5 1004182
08:00+30e5632100 0.1 1005524
11:00+35ese3421100 0.4 10041287
14:00+38s221789 0.0 10012053
17:00+39nnw12150 0.0 9982013
20:00+34nne12190 0.0 99919
11 may, tue
tue1123:00+31s342695 0.0 100086
02:00+29sse223297 0.4 100031
05:00+27ene353622 0.6 100080
08:00+32ese46255 0.0 1002532
11:00+39sse44150 0.0 10011743
14:00+42ssw23129 0.0 9983993
17:00+42ese141197 0.0 9944740
20:00+31ene10152780 0.1 998639
12 may, wed
wed1223:00+30se6112894 0.3 999337
02:00+28ene4837100 0.1 999261
05:00+25e4949100 0.4 999230
08:00+29ese2339100 1.4 1001225
11:00+32e2231100 1.4 1001464
14:00+35e5523100 0.0 10002453
17:00+31e4531100 0.1 10001192
20:00+27se5947100 0.0 1000533
13 may, thu
thu1323:00+26ne3449100 0.0 1001145
02:00+25e3654100 0.0 1000197
05:00+24ese3758100 0.1 1002247
08:00+27ene56443 0.3 1004850
11:00+32e653431 0.3 10041895
14:00+34e662939 0.0 10012642
17:00+32e44330 0.5 10011351
20:00+29ene23390 0.0 1000108